Location: Squamish
(49.7000°N, 123.1500°W)
Time: 19:45:11
(UTC-07:00)

Daily predictions for brighter satellites

Satellite Brightness Start Highest point End
(mag) Time Altitude Azimuth Time Altitude Azimuth Time Altitude Azimuth
BREEZE-M DEB (TANK) 4.4 20:30:21 10° W 20:34:20 89° S 20:49:59 10° E
Cosmos 2322 Rocket 2.8 20:48:31 10° SSE 20:53:28 33° ESE 20:58:27 10° NE
Envisat 3.1 20:48:57 10° SSE 20:53:59 67° ENE 20:59:03 10° N
Cosmos 1302 Rocket 4.0 20:49:28 10° SSW 20:54:38 70° ESE 20:59:49 10° NNE
Cosmos 1825 2.3 20:53:00 10° N 20:56:46 56° ENE 21:00:30 10° SSE
CZ-2D R/B 4.4 20:59:01 10° S 21:02:47 45° W 21:06:33 10° NNW
Cosmos 2360 Rocket 3.6 21:00:39 10° SE 21:04:11 17° E 21:07:46 10° ENE
Cosmos 1980 Rocket 2.3 20:58:44 10° SSW 21:04:26 86° WNW 21:10:12 10° NNE
Cosmos 2026 Rocket 4.0 21:03:22 10° N 21:09:42 82° E 21:15:52 10° SSE
USA 186 3.0 21:08:30 10° SSW 21:11:05 36° W 21:13:53 10° NNW
Cosmos 1862 3.4 21:07:18 10° N 21:11:18 58° ENE 21:15:16 10° SSE
Helios 1B rocket 2.4 21:10:42 10° NNE 21:14:49 70° ESE 21:18:54 10° S
ERBS 4.1 21:12:53 10° WNW 21:15:47 25° SW 21:18:41 10° S
Lacrosse 4 Rocket 1.9 21:12:23 10° NW 21:16:39 63° WSW 21:20:59 10° SSE
USA 234 3.7 21:10:53 10° SE 21:17:18 57° SW 21:23:45 10° WNW
Cosmos 1707 Rocket 4.2 21:16:34 10° SSW 21:20:58 60° WNW 21:25:21 10° N
SL-16 R/B 2.3 21:15:37 10° S 21:21:05 52° ESE 21:26:36 10° NE
SAR-Lupe-4 4.4 21:18:56 10° S 21:22:26 50° W 21:25:58 10° NNW
Cosmos 1733 Rocket 3.1 21:18:39 10° N 21:23:09 81° E 21:27:35 10° SSE
ATLAS 5 CENTAUR R/B 2.5 21:17:49 10° NW 21:23:38 72° NE 21:29:19 13° SE
Cosmos 1939 Rocket 3.1 21:21:42 10° S 21:25:45 75° WSW 21:29:46 10° NNW
ERS-1 Rocket 3.0 21:22:28 10° SSE 21:27:27 67° ENE 21:32:28 10° N
MetOp-B 4.5 21:23:30 11° SE 21:28:25 50° ENE 21:33:34 10° N
Cosmos 1408 3.3 21:27:43 10° NNW 21:31:22 54° W 21:34:57 10° S
Cosmos 1862 Rocket 3.6 21:29:38 10° S 21:34:03 62° E 21:38:29 10° NNE
Cosmos 1634 Rocket 4.3 21:27:51 10° SSW 21:34:08 72° W 21:40:30 10° N
Cosmos 1655 Rocket 4.2 21:30:47 10° NNW 21:37:13 80° W 21:43:34 10° S
Cosmos 2278 Rocket 4.0 21:33:11 10° N 21:37:15 19° NE 21:41:16 10° E
ARGOS 3.6 21:34:29 14° SE 21:38:47 48° ENE 21:43:57 10° N
Abrixas rocket 2.4 21:35:47 10° WSW 21:38:59 51° SSE 21:41:21 16° E
SeaSat 1 2.6 21:36:49 16° SE 21:40:44 61° NE 21:45:37 10° NNW
Okean 1-7 4.3 21:44:46 19° ESE 21:46:31 24° E 21:50:04 10° NE
Cosmos 1844 Rocket 3.6 21:41:47 10° NNW 21:46:56 37° NE 21:50:44 17° ESE
Cosmos 1992 Rocket 4.0 21:41:55 10° S 21:47:06 67° ESE 21:52:20 10° NNE
CENTAUR R/B 3.8 21:44:29 10° WSW 21:50:39 47° NNW 21:57:41 10° NE
Intercosmos 25 Rocket 3.9 21:47:27 10° SSW 21:50:42 58° WNW 21:55:04 10° N
SL-08 RB Rocket 4.2 21:47:56 19° SE 21:50:52 45° ENE 21:55:13 10° N
Terra 3.3 21:48:56 15° E 21:51:27 23° ENE 21:55:10 10° N
Cosmos 2242 Rocket 4.3 21:48:48 10° SSW 21:53:14 57° WNW 21:57:40 10° N
Cosmos 1703 Rocket 4.1 21:51:18 19° SSE 21:54:05 40° E 21:58:13 10° NNE
YAOGAN 11 4.0 21:51:29 18° SSE 21:54:46 76° ENE 21:59:07 10° NNW
Atlas Centaur 2 4.4 21:51:43 10° SSW 21:55:49 15° SSE 21:56:51 15° SSE
Cosmos 2266 Rocket 4.0 21:51:30 10° N 21:57:44 70° ENE 22:02:48 17° SSE
USA 229 DEB 4.3 21:54:12 10° S 22:00:07 32° ESE 22:06:08 10° NE
USA 229 4.3 21:54:18 10° S 22:00:11 32° ESE 22:06:11 10° NE
Cosmos 2221 Rocket 4.2 21:58:59 23° SE 22:00:58 36° E 22:05:02 10° NNE
YAOGAN 6 3.9 22:05:50 10° SSW 22:09:12 38° W 22:12:37 10° NNW
Cosmos 2219 Rocket 3.8 22:10:17 15° E 22:10:17 15° E 22:13:06 10° ENE
Cosmos 1867 3.7 22:04:38 10° NW 22:10:06 73° SW 22:13:26 24° SSE
CZ-4C R/B 3.6 22:04:57 10° NW 22:11:17 42° NNE 22:17:19 14° E
MetOp-A 4.3 22:10:00 16° S 22:14:20 71° WSW 22:19:43 10° NNW
H-2A R/B 2.1 22:14:05 27° SE 22:16:45 60° ENE 22:21:37 10° N
Meteor 1-14 Rocket 4.2 22:11:16 10° NNW 22:16:56 89° W 22:20:57 21° S
MOS 1-B Rocket 3.8 22:13:24 20° SSE 22:17:38 87° ENE 22:23:16 10° NNW
USA 267 3.9 22:16:35 10° ENE 22:22:57 56° NNW 22:29:19 10° W
Cosmos 968 Rocket 3.9 22:18:29 10° NNW 22:23:36 60° WSW 22:26:54 22° S
ASTEX 1 4.2 22:23:00 27° ESE 22:24:46 36° ENE 22:29:18 10° N
SPOT 5 3.0 22:22:39 22° S 22:25:46 70° WSW 22:30:26 10° NNW
Cosmos 2263 Rocket 3.5 22:22:30 10° NW 22:27:29 34° WSW 22:31:51 13° SSW
Sich 1 Rocket 4.3 22:24:01 10° NNW 22:28:21 50° W 22:31:32 17° SSW
Meteor 1-25 Rocket 4.1 22:26:40 10° NNW 22:32:19 89° W 22:35:26 28° S
Meteor 2-10 Rocket 4.0 22:29:08 10° SSW 22:34:57 71° WNW 22:40:45 10° N
COSMOS 2428 3.2 22:34:03 32° SE 22:35:46 40° ESE 22:41:03 10° NE
Cosmos 2322 Rocket 3.2 22:31:55 10° SW 22:37:20 48° NW 22:42:49 10° NNE
H-2A R/B 2.1 22:38:13 42° SE 22:39:26 63° ENE 22:43:45 10° N
PSLV R/B 4.2 22:40:52 32° NE 22:40:52 32° NE 22:42:58 10° N
ATLAS 3B R/B 4.4 22:38:32 10° NW 22:44:33 28° NNE 22:50:18 10° ENE
Cosmos 2360 Rocket 2.2 22:41:45 10° SSW 22:47:25 87° WNW 22:53:09 10° NNE
Cosmos 1606 3.0 22:49:05 47° E 22:49:05 47° E 22:52:38 10° NNE
Cosmos 1844 3.7 22:44:13 10° NNW 22:49:57 74° ENE 22:52:07 39° SE
Meteor 1-20 Rocket 4.3 22:46:06 10° NNW 22:51:38 72° W 22:54:26 30° S
Cosmos 1782 Rocket 4.4 22:50:10 10° NNW 22:54:20 44° W 22:56:22 26° SSW
Cosmos 1633 2.7 22:51:58 10° N 22:55:34 56° ENE 22:55:35 56° ENE
Cosmos 2322 3.7 22:49:55 10° SSW 22:55:39 87° WNW 23:01:24 10° NNE
IGS 5A 3.4 22:55:15 56° SE 22:55:58 71° ENE 23:00:07 10° N
Okean 2 Rocket 3.6 22:53:36 10° NNW 22:58:03 57° W 22:59:45 34° SSW
Cosmos 1300 Rocket 4.0 22:58:01 10° N 23:02:12 44° ENE 23:02:34 43° E
S3M 4.2 23:01:32 39° SE 23:03:17 49° E 23:09:14 10° NNE
SPOT 1/Viking Rocket 4.3 23:01:38 26° SSW 23:04:15 48° W 23:09:20 10° NNW
Cosmos 1782 2.7 23:04:48 65° S 23:05:22 90° W 23:09:25 10° N
SL-16 R/B 3.9 23:00:19 10° WSW 23:05:27 34° NW 23:10:37 10° NNE
Meteor 2-6 Rocket 4.3 23:04:20 39° S 23:06:37 70° E 23:12:34 10° NNE
ATLAS 5 CENTAUR R/B 3.7 23:02:58 10° WNW 23:08:06 30° WSW 23:10:52 21° SSW
Landsat 7 4.3 23:12:13 38° SSW 23:13:44 54° W 23:18:26 10° NNW
Abrixas rocket 3.9 23:12:23 10° W 23:14:02 27° W 23:14:02 27° W
Cosmos 2333 Rocket 2.7 23:16:06 39° ESE 23:16:10 39° ESE 23:21:30 10° NE
Cosmos 2333 4.1 23:15:31 41° S 23:17:32 71° ESE 23:23:19 10° NNE
SeaSat 1 4.1 23:16:36 19° SW 23:18:35 24° WSW 23:22:36 10° NW
Cosmos 1898 Rocket 3.9 23:14:10 10° NNW 23:19:15 52° ENE 23:20:22 44° ESE
Cosmos 2278 Rocket 2.2 23:16:39 10° NNW 23:22:21 74° ENE 23:23:48 50° SE
Cosmos 2237 Rocket 3.0 23:23:19 33° E 23:23:19 33° E 23:27:54 10° NE
Okean 1-7 4.2 23:21:37 23° SW 23:23:54 40° WNW 23:28:04 10° N
deb Chang Zheng 4 3.5 23:20:30 10° NNE 23:24:57 88° W 23:25:30 68° SSW
Cosmos 1346 Rocket 3.2 23:27:02 53° NE 23:27:02 53° NE 23:30:21 10° NNE
Timation 1 Rocket 4.5 23:21:38 10° NNW 23:27:37 65° NE 23:29:22 45° ESE
Terra 2.2 23:27:49 45° SW 23:28:52 55° W 23:33:34 10° NNW
Cosmos 1844 Rocket 3.3 23:25:40 10° NW 23:30:58 46° WSW 23:32:24 38° SSW
Cosmos 2151 Rocket 4.1 23:27:12 10° NNW 23:31:31 52° W 23:32:12 47° SW
Spot 4 3.7 23:31:24 68° S 23:32:02 87° WSW 23:36:50 10° NNW
Cosmos 1745 Rocket 3.9 23:26:33 10° N 23:32:55 90° SW 23:34:52 48° S
Meteor 1-5 Rocket 4.3 23:29:27 10° N 23:35:01 63° ENE 23:36:07 52° ESE
Cosmos 1602 4.1 23:33:56 10° NNW 23:37:30 57° WNW 23:37:30 57° WNW
Meteor 1-27 Rocket 3.6 23:37:46 55° S 23:39:03 83° ESE 23:44:41 10° NNE
CZ-4 R/B 3.7 23:34:21 10° NNE 23:39:09 89° ESE 23:39:45 69° SSW
CZ-2C R/B 4.1 23:36:23 10° NE 23:40:23 23° E 23:40:23 23° E
DELTA 2 DEB (DPAF) 4.1 23:40:48 73° SW 23:41:02 75° WSW 23:45:32 10° NNW
Iridium 4 Rocket 2.9 23:36:54 10° N 23:41:03 78° WNW 23:41:03 78° WNW
Meteor 2-11 Rocket 4.3 23:44:12 54° S 23:45:39 79° E 23:51:47 10° NNE
NOSS 3-1 (C) 3.4 23:46:08 57° SSE 23:46:58 62° SE 23:53:31 10° NE
USA 229 DEB 3.9 23:43:46 10° SW 23:50:37 71° NW 23:57:39 10° NE
USA 229 3.9 23:43:51 10° SW 23:50:41 72° NW 23:57:43 10° NE
Cosmos 2219 Rocket 2.0 23:51:56 59° SSW 23:53:04 86° ESE 23:58:44 10° NNE
Cosmos 2084 4.2 23:49:42 10° NW 23:52:28 41° WNW 23:52:28 41° WNW
